Simultaneous Nadir Overpasses (SNOs) Predictions

Prediction of SNOs between NOAA-19 and NPP Satellite Orbit:

Table of predicted SNOs for the next 14.0 days since TLE Epoch: 8/25/2017
Index Date (NOAA-19) Time (NOAA-19) Lat,Lon (NOAA-19) SZA (NOAA-19 ) Date (NPP) Time (NPP) Lat,Lon (NPP) SZA (NPP ) Distance(km) Time Diff (sec)
1 08/27/2017 05:00:29 80.79, 55.56 74.11 08/27/2017 05:01:40 80.77, 55.71 74.05 3.26 71
2 08/27/2017 05:51:32 -80.79,-137.30 105.87 08/27/2017 05:52:26 -80.79,-137.35 105.89 1.15 54
3 08/27/2017 06:42:31 80.78, 29.87 74.16 08/27/2017 06:43:11 80.79, 29.96 74.13 1.98 40
4 08/27/2017 07:33:33 -80.79,-162.62 105.87 08/27/2017 07:33:56 -80.79,-162.74 105.86 2.17 23
5 08/27/2017 08:24:32 80.79, 4.55 74.16 08/27/2017 08:24:41 80.79, 4.57 74.16 0.71 9
6 08/27/2017 09:15:35 -80.79, 171.70 105.82 08/27/2017 09:15:26 -80.79, 171.87 105.83 3.11 9
7 08/27/2017 10:06:33 80.79, -20.78 74.17 08/27/2017 10:06:11 80.79, -20.82 74.18 0.72 22
8 08/27/2017 10:57:36 -80.79, 146.38 105.82 08/27/2017 10:56:56 -80.79, 146.48 105.81 1.72 40
9 08/27/2017 11:48:34 80.80, -46.10 74.17 08/27/2017 11:47:41 80.79, -46.21 74.21 1.99 53




NCC Satellite Simultaneous Nadir Overpasses (SNOs) Prediction Service
